Time,TemperatureF,DewpointF,PressureIn,WindDirection,WindDirectionDegrees,WindSpeedMPH,WindSpeedGustMPH,Humidity,HourlyPrecipIn,Conditions,Clouds,dailyrainin,SoftwareType,DateUTC
2013-01-20 00:00:00,41.3,28.1,29.79,South,186,7.0,15.0,59,0.00,,,0.02,WUHU216DAVISVP2,2013-01-20 05:00:00,
2013-01-20 00:01:00,41.3,28.1,29.79,South,182,5.6,15.0,59,0.00,,,0.00,WUHU216DAVISVP2,2013-01-20 05:01:00,
2013-01-20 00:03:00,41.3,28.1,29.79,South,184,11.0,15.0,59,0.00,,,0.00,WUHU216DAVISVP2,2013-01-20 05:03:00,
2013-01-20 00:08:00,41.3,28.5,29.78,SSE,159,6.0,13.0,60,0.00,,,0.00,WUHU216DAVISVP2,2013-01-20 05:08:00,
2013-01-20 00:13:00,41.2,28.0,29.78,SSE,161,5.8,13.0,59,0.00,,,0.00,WUHU216DAVISVP2,2013-01-20 05:13:00,
2013-01-20 00:18:00,41.2,28.4,29.78,South,175,3.2,13.0,60,0.00,,,0.00,WUHU216DAVISVP2,2013-01-20 05:18:00,
2013-01-20 00:23:00,41.2,28.4,29.78,SSW,210,6.0,13.0,60,0.00,,,0.00,WUHU216DAVISVP2,2013-01-20 05:23:00,
2013-01-20 00:28:00,41.2,28.4,29.77,South,172,6.0,13.0,60,0.00,,,0.00,WUHU216DAVISVP2,2013-01-20 05:28:00,
2013-01-20 00:33:00,41.2,28.8,29.77,South,181,6.0,13.0,61,0.00,,,0.00,WUHU216DAVISVP2,2013-01-20 05:33:00,
2013-01-20 00:38:00,41.1,28.7,29.77,SSW,210,4.0,13.0,61,0.00,,,0.00,WUHU216DAVISVP2,2013-01-20 05:38:00,
2013-01-20 00:43:00,41.1,28.7,29.77,SSE,155,7.0,13.0,61,0.00,,,0.00,WUHU216DAVISVP2,2013-01-20 05:43:00,
2013-01-20 00:48:00,41.1,28.7,29.76,SE,138,4.0,13.0,61,0.00,,,0.00,WUHU216DAVISVP2,2013-01-20 05:48:00,
2013-01-20 00:53:00,41.2,28.8,29.76,South,178,3.8,15.0,61,0.00,,,0.00,WUHU216DAVISVP2,2013-01-20 05:53:00,
2013-01-20 00:58:00,41.2,28.8,29.76,South,170,7.0,15.0,61,0.00,,,0.00,WUHU216DAVISVP2,2013-01-20 05:58:00,
2013-01-20 01:03:00,41.2,28.8,29.76,South,181,6.9,15.0,61,0.00,,,0.00,WUHU216DAVISVP2,2013-01-20 06:03:00,
2013-01-20 01:08:00,41.2,28.8,29.76,South,186,4.3,15.0,61,0.00,,,0.00,WUHU216DAVISVP2,2013-01-20 06:08:00,
2013-01-20 01:13:00,41.2,29.2,29.75,South,181,6.0,12.0,62,0.00,,,0.00,WUHU216DAVISVP2,2013-01-20 06:13:00,
2013-01-20 01:18:00,41.2,29.2,29.75,South,180,6.0,12.0,62,0.00,,,0.00,WUHU216DAVISVP2,2013-01-20 06:18:00,
2013-01-20 01:23:00,41.1,29.1,29.74,SSE,168,6.0,11.0,62,0.00,,,0.00,WUHU216DAVISVP2,2013-01-20 06:23:00,
2013-01-20 01:28:00,41.0,29.0,29.74,South,172,3.0,11.0,62,0.00,,,0.00,WUHU216DAVISVP2,2013-01-20 06:28:00,
2013-01-20 01:33:00,40.9,29.0,29.75,South,170,4.0,11.0,62,0.00,,,0.00,WUHU216DAVISVP2,2013-01-20 06:33:00,
2013-01-20 01:38:00,40.9,29.3,29.75,South,174,11.0,13.0,63,0.00,,,0.00,WUHU216DAVISVP2,2013-01-20 06:38:00,
2013-01-20 01:43:00,41.0,29.0,29.75,SSE,156,4.2,13.0,62,0.00,,,0.00,WUHU216DAVISVP2,2013-01-20 06:43:00,
2013-01-20 01:48:00,41.1,29.1,29.75,SSW,210,6.0,13.0,62,0.00,,,0.00,WUHU216DAVISVP2,2013-01-20 06:48:00,
2013-01-20 01:53:00,41.1,29.1,29.75,SSW,195,2.9,13.0,62,0.00,,,0.00,WUHU216DAVISVP2,2013-01-20 06:53:00,
2013-01-20 01:58:00,41.2,29.2,29.75,SSE,148,3.3,11.0,62,0.00,,,0.00,WUHU216DAVISVP2,2013-01-20 06:58:00,
2013-01-20 02:04:00,41.2,29.2,29.75,ESE,103,4.0,11.0,62,0.00,,,0.00,WUHU216DAVISVP2,2013-01-20 07:04:00,
2013-01-20 02:09:00,41.2,29.2,29.75,South,184,6.0,9.0,62,0.00,,,0.00,WUHU216DAVISVP2,2013-01-20 07:09:00,
2013-01-20 02:14:00,41.3,29.3,29.75,SSW,200,4.4,11.0,62,0.00,,,0.00,WUHU216DAVISVP2,2013-01-20 07:14:00,
2013-01-20 02:19:00,41.4,29.4,29.74,South,171,4.1,12.0,62,0.00,,,0.00,WUHU216DAVISVP2,2013-01-20 07:19:00,
2013-01-20 02:24:00,41.4,29.3,29.74,SSE,161,8.0,14.0,62,0.00,,,0.00,WUHU216DAVISVP2,2013-01-20 07:24:00,
2013-01-20 02:29:00,41.5,29.5,29.74,SSW,199,6.1,14.0,62,0.00,,,0.00,WUHU216DAVISVP2,2013-01-20 07:29:00,
2013-01-20 02:34:00,41.4,29.4,29.74,SW,232,6.0,14.0,62,0.00,,,0.00,WUHU216DAVISVP2,2013-01-20 07:34:00,
2013-01-20 02:39:00,41.4,29.4,29.74,SSW,212,6.0,14.0,62,0.00,,,0.00,WUHU216DAVISVP2,2013-01-20 07:39:00,
2013-01-20 02:44:00,41.3,29.3,29.74,SSW,211,5.4,16.0,62,0.00,,,0.00,WUHU216DAVISVP2,2013-01-20 07:44:00,
2013-01-20 02:49:00,41.3,29.3,29.73,SW,217,8.0,16.0,62,0.00,,,0.00,WUHU216DAVISVP2,2013-01-20 07:49:00,
2013-01-20 02:54:00,41.2,29.2,29.73,WSW,243,7.0,16.0,62,0.00,,,0.00,WUHU216DAVISVP2,2013-01-20 07:54:00,
2013-01-20 02:59:00,41.2,29.2,29.72,South,181,5.0,13.0,62,0.00,,,0.00,WUHU216DAVISVP2,2013-01-20 07:59:00,
2013-01-20 03:04:00,41.1,29.1,29.72,South,173,4.6,13.0,62,0.00,,,0.00,WUHU216DAVISVP2,2013-01-20 08:04:00,
2013-01-20 03:09:00,40.9,29.3,29.72,SSE,163,4.1,13.0,63,0.00,,,0.00,WUHU216DAVISVP2,2013-01-20 08:09:00,
2013-01-20 03:14:00,40.9,29.3,29.72,WSW,250,4.0,17.0,63,0.00,,,0.00,WUHU216DAVISVP2,2013-01-20 08:14:00,
2013-01-20 03:19:00,40.8,29.3,29.71,SSW,208,10.0,17.0,63,0.00,,,0.00,WUHU216DAVISVP2,2013-01-20 08:19:00,
2013-01-20 03:24:00,40.7,29.2,29.71,South,177,3.9,17.0,63,0.00,,,0.00,WUHU216DAVISVP2,2013-01-20 08:24:00,
2013-01-20 03:29:00,40.6,29.5,29.70,SW,221,7.0,17.0,64,0.00,,,0.00,WUHU216DAVISVP2,2013-01-20 08:29:00,
2013-01-20 03:34:00,40.4,29.2,29.70,SE,135,5.0,14.0,64,0.00,,,0.00,WUHU216DAVISVP2,2013-01-20 08:34:00,
2013-01-20 03:39:00,40.3,29.2,29.70,South,189,9.0,12.0,64,0.00,,,0.00,WUHU216DAVISVP2,2013-01-20 08:39:00,
2013-01-20 03:44:00,40.3,29.2,29.69,SSW,204,5.9,13.0,64,0.00,,,0.00,WUHU216DAVISVP2,2013-01-20 08:44:00,
2013-01-20 03:49:00,40.2,29.1,29.69,SSW,207,8.0,13.0,64,0.00,,,0.00,WUHU216DAVISVP2,2013-01-20 08:49:00,
2013-01-20 03:54:00,40.2,29.1,29.69,South,175,7.2,15.0,64,0.00,,,0.00,WUHU216DAVISVP2,2013-01-20 08:54:00,
2013-01-20 03:59:00,40.2,29.1,29.68,South,174,5.2,15.0,64,0.00,,,0.00,WUHU216DAVISVP2,2013-01-20 08:59:00,
2013-01-20 04:04:00,40.0,28.9,29.68,SSW,207,5.6,15.0,64,0.00,,,0.00,WUHU216DAVISVP2,2013-01-20 09:04:00,
2013-01-20 04:09:00,39.9,28.7,29.67,South,173,5.9,15.0,64,0.00,,,0.00,WUHU216DAVISVP2,2013-01-20 09:09:00,
2013-01-20 04:14:00,39.9,29.1,29.67,SSW,193,5.0,14.0,65,0.00,,,0.00,WUHU216DAVISVP2,2013-01-20 09:14:00,
2013-01-20 04:19:00,39.8,29.1,29.67,SSE,166,6.0,14.0,65,0.00,,,0.00,WUHU216DAVISVP2,2013-01-20 09:19:00,
2013-01-20 04:24:00,39.8,29.1,29.66,SSW,195,8.3,14.0,65,0.00,,,0.00,WUHU216DAVISVP2,2013-01-20 09:24:00,
2013-01-20 04:29:00,39.7,29.0,29.66,South,174,8.0,14.0,65,0.00,,,0.00,WUHU216DAVISVP2,2013-01-20 09:29:00,
2013-01-20 04:34:00,39.6,28.9,29.65,SSE,165,10.0,14.0,65,0.00,,,0.00,WUHU216DAVISVP2,2013-01-20 09:34:00,
2013-01-20 04:39:00,39.6,28.9,29.65,South,181,6.1,14.0,65,0.00,,,0.00,WUHU216DAVISVP2,2013-01-20 09:39:00,
2013-01-20 04:44:00,39.5,28.8,29.65,South,185,5.8,14.0,65,0.00,,,0.00,WUHU216DAVISVP2,2013-01-20 09:44:00,
2013-01-20 04:49:00,39.5,28.7,29.65,South,187,5.1,13.0,65,0.00,,,0.00,WUHU216DAVISVP2,2013-01-20 09:49:00,
2013-01-20 04:54:00,39.3,28.9,29.64,SSE,162,6.0,13.0,66,0.00,,,0.00,WUHU216DAVISVP2,2013-01-20 09:54:00,
2013-01-20 04:59:00,39.4,29.1,29.64,South,179,7.0,13.0,66,0.00,,,0.00,WUHU216DAVISVP2,2013-01-20 09:59:00,
2013-01-20 05:04:00,39.3,29.0,29.64,SSW,196,4.4,11.0,66,0.00,,,0.00,WUHU216DAVISVP2,2013-01-20 10:04:00,
2013-01-20 05:09:00,39.3,29.0,29.64,South,179,4.7,15.0,66,0.00,,,0.00,WUHU216DAVISVP2,2013-01-20 10:09:00,
2013-01-20 05:14:00,39.2,28.9,29.64,SW,221,6.0,15.0,66,0.00,,,0.00,WUHU216DAVISVP2,2013-01-20 10:14:00,
2013-01-20 05:19:00,39.2,28.9,29.63,South,170,7.1,15.0,66,0.00,,,0.00,WUHU216DAVISVP2,2013-01-20 10:19:00,
2013-01-20 05:24:00,39.1,28.8,29.63,South,171,6.7,15.0,66,0.00,,,0.00,WUHU216DAVISVP2,2013-01-20 10:24:00,
2013-01-20 05:29:00,39.1,28.7,29.63,SSW,192,6.9,18.0,66,0.00,,,0.00,WUHU216DAVISVP2,2013-01-20 10:29:00,
2013-01-20 05:34:00,39.1,28.7,29.62,South,174,7.8,18.0,66,0.00,,,0.00,WUHU216DAVISVP2,2013-01-20 10:34:00,
2013-01-20 05:39:00,39.1,29.1,29.62,SSE,160,7.0,18.0,67,0.00,,,0.00,WUHU216DAVISVP2,2013-01-20 10:39:00,
2013-01-20 05:44:00,38.9,29.0,29.62,SSW,208,6.0,18.0,67,0.00,,,0.00,WUHU216DAVISVP2,2013-01-20 10:44:00,
2013-01-20 05:49:00,38.8,28.9,29.61,SSE,158,6.0,15.0,67,0.00,,,0.00,WUHU216DAVISVP2,2013-01-20 10:49:00,
2013-01-20 05:54:00,38.8,28.9,29.61,SSW,207,5.0,13.0,67,0.00,,,0.00,WUHU216DAVISVP2,2013-01-20 10:54:00,
2013-01-20 05:59:00,38.6,28.9,29.62,SE,139,4.0,12.0,68,0.00,,,0.00,WUHU216DAVISVP2,2013-01-20 10:59:00,
2013-01-20 06:04:00,38.5,28.9,29.62,SE,141,6.0,12.0,68,0.00,,,0.00,WUHU216DAVISVP2,2013-01-20 11:04:00,
2013-01-20 06:09:00,38.5,28.9,29.61,SSW,211,9.0,13.0,68,0.00,,,0.00,WUHU216DAVISVP2,2013-01-20 11:09:00,
2013-01-20 06:14:00,38.5,28.9,29.61,SW,221,5.0,14.0,68,0.00,,,0.00,WUHU216DAVISVP2,2013-01-20 11:14:00,
2013-01-20 06:19:00,38.4,28.8,29.60,SE,133,9.0,18.0,68,0.00,,,0.00,WUHU216DAVISVP2,2013-01-20 11:19:00,
2013-01-20 06:24:00,38.4,28.8,29.60,South,178,6.3,18.0,68,0.00,,,0.00,WUHU216DAVISVP2,2013-01-20 11:24:00,
2013-01-20 06:29:00,38.3,28.7,29.60,South,184,6.1,18.0,68,0.00,,,0.00,WUHU216DAVISVP2,2013-01-20 11:29:00,
2013-01-20 06:34:00,38.3,28.7,29.60,South,176,3.6,13.0,68,0.00,,,0.00,WUHU216DAVISVP2,2013-01-20 11:34:00,
2013-01-20 06:39:00,38.1,28.9,29.60,SSE,153,4.0,13.0,69,0.00,,,0.00,WUHU216DAVISVP2,2013-01-20 11:39:00,
2013-01-20 06:44:00,38.2,29.0,29.60,South,180,10.2,17.0,69,0.00,,,0.00,WUHU216DAVISVP2,2013-01-20 11:44:00,
2013-01-20 06:49:00,38.2,29.0,29.60,SW,229,7.0,17.0,69,0.00,,,0.00,WUHU216DAVISVP2,2013-01-20 11:49:00,
2013-01-20 06:54:00,38.1,28.9,29.61,South,177,5.5,17.0,69,0.00,,,0.00,WUHU216DAVISVP2,2013-01-20 11:54:00,
2013-01-20 06:59:00,38.1,28.9,29.61,SSW,201,12.0,17.0,69,0.00,,,0.00,WUHU216DAVISVP2,2013-01-20 11:59:00,
2013-01-20 07:04:00,38.1,28.8,29.61,South,170,6.0,17.0,69,0.00,,,0.00,WUHU216DAVISVP2,2013-01-20 12:04:00,
2013-01-20 07:09:00,38.1,28.9,29.61,South,181,6.3,16.0,69,0.00,,,0.00,WUHU216DAVISVP2,2013-01-20 12:09:00,
2013-01-20 07:14:00,38.0,28.8,29.61,SSW,204,5.1,16.0,69,0.00,,,0.00,WUHU216DAVISVP2,2013-01-20 12:14:00,
2013-01-20 07:19:00,38.0,28.7,29.62,SSW,196,5.8,13.0,69,0.00,,,0.00,WUHU216DAVISVP2,2013-01-20 12:19:00,
2013-01-20 07:24:00,38.0,28.8,29.62,SSE,161,5.0,13.0,69,0.00,,,0.00,WUHU216DAVISVP2,2013-01-20 12:24:00,
2013-01-20 07:29:00,38.1,28.9,29.62,South,177,4.4,13.0,69,0.00,,,0.00,WUHU216DAVISVP2,2013-01-20 12:29:00,
2013-01-20 07:34:00,38.1,28.9,29.61,South,189,7.0,13.0,69,0.00,,,0.00,WUHU216DAVISVP2,2013-01-20 12:34:00,
2013-01-20 07:39:00,38.1,28.9,29.60,SSE,155,10.0,13.0,69,0.00,,,0.00,WUHU216DAVISVP2,2013-01-20 12:39:00,
2013-01-20 07:44:00,38.4,29.2,29.60,SE,137,6.2,14.0,69,0.00,,,0.00,WUHU216DAVISVP2,2013-01-20 12:44:00,
2013-01-20 07:49:00,38.7,29.1,29.60,SSE,162,13.0,14.0,68,0.00,,,0.00,WUHU216DAVISVP2,2013-01-20 12:49:00,
2013-01-20 07:54:00,38.8,29.2,29.60,South,178,6.6,14.0,68,0.00,,,0.00,WUHU216DAVISVP2,2013-01-20 12:54:00,
2013-01-20 07:59:00,39.1,29.1,29.59,SE,138,8.0,14.0,67,0.00,,,0.00,WUHU216DAVISVP2,2013-01-20 12:59:00,
2013-01-20 08:04:00,39.1,29.1,29.59,SW,214,12.0,14.0,67,0.00,,,0.00,WUHU216DAVISVP2,2013-01-20 13:04:00,
2013-01-20 08:09:00,39.0,29.0,29.58,SSW,204,6.0,15.0,67,0.00,,,0.00,WUHU216DAVISVP2,2013-01-20 13:09:00,
2013-01-20 08:14:00,39.2,29.2,29.58,SSE,163,6.0,18.0,67,0.00,,,0.00,WUHU216DAVISVP2,2013-01-20 13:14:00,
2013-01-20 08:19:00,39.4,29.1,29.59,SE,135,6.0,18.0,66,0.00,,,0.00,WUHU216DAVISVP2,2013-01-20 13:19:00,
2013-01-20 08:24:00,39.5,29.2,29.59,SE,139,6.0,18.0,66,0.00,,,0.00,WUHU216DAVISVP2,2013-01-20 13:24:00,
2013-01-20 08:29:00,39.6,29.3,29.59,SSE,162,6.9,18.0,66,0.00,,,0.00,WUHU216DAVISVP2,2013-01-20 13:29:00,
2013-01-20 08:34:00,39.6,29.3,29.58,South,174,8.3,17.0,66,0.00,,,0.00,WUHU216DAVISVP2,2013-01-20 13:34:00,
2013-01-20 08:39:00,39.6,29.2,29.58,SSE,148,12.0,17.0,66,0.00,,,0.00,WUHU216DAVISVP2,2013-01-20 13:39:00,
2013-01-20 08:44:00,39.7,28.9,29.58,South,174,9.6,17.0,65,0.00,,,0.00,WUHU216DAVISVP2,2013-01-20 13:44:00,
2013-01-20 08:49:00,39.8,29.1,29.58,ESE,120,9.0,17.0,65,0.00,,,0.00,WUHU216DAVISVP2,2013-01-20 13:49:00,
2013-01-20 08:54:00,39.9,29.1,29.58,South,177,6.0,17.0,65,0.00,,,0.00,WUHU216DAVISVP2,2013-01-20 13:54:00,
2013-01-20 08:59:00,40.0,29.2,29.58,South,175,6.6,17.0,65,0.00,,,0.00,WUHU216DAVISVP2,2013-01-20 13:59:00,
2013-01-20 09:04:00,40.3,29.5,29.57,South,174,5.2,16.0,65,0.00,,,0.00,WUHU216DAVISVP2,2013-01-20 14:04:00,
2013-01-20 09:09:00,40.9,29.7,29.57,South,177,11.0,16.0,64,0.00,,,0.00,WUHU216DAVISVP2,2013-01-20 14:09:00,
2013-01-20 09:14:00,41.5,29.9,29.58,SSE,150,6.0,17.0,63,0.00,,,0.00,WUHU216DAVISVP2,2013-01-20 14:14:00,
2013-01-20 09:19:00,41.8,29.8,29.58,SSE,168,5.9,18.0,62,0.00,,,0.00,WUHU216DAVISVP2,2013-01-20 14:19:00,
2013-01-20 09:24:00,41.8,29.8,29.58,SSW,206,9.0,18.0,62,0.00,,,0.00,WUHU216DAVISVP2,2013-01-20 14:24:00,
2013-01-20 09:29:00,41.7,29.3,29.58,South,180,6.4,18.0,61,0.00,,,0.00,WUHU216DAVISVP2,2013-01-20 14:29:00,
2013-01-20 09:34:00,41.8,29.4,29.59,SSW,198,6.8,18.0,61,0.00,,,0.00,WUHU216DAVISVP2,2013-01-20 14:34:00,
2013-01-20 09:39:00,41.9,29.5,29.59,South,187,5.8,15.0,61,0.00,,,0.00,WUHU216DAVISVP2,2013-01-20 14:39:00,
2013-01-20 09:44:00,41.8,29.4,29.59,South,185,5.3,15.0,61,0.00,,,0.00,WUHU216DAVISVP2,2013-01-20 14:44:00,
2013-01-20 09:49:00,41.8,29.4,29.60,SW,215,4.5,15.0,61,0.00,,,0.00,WUHU216DAVISVP2,2013-01-20 14:49:00,
2013-01-20 09:54:00,41.8,29.4,29.60,SSE,150,5.0,13.0,61,0.00,,,0.00,WUHU216DAVISVP2,2013-01-20 14:54:00,
2013-01-20 09:59:00,42.0,29.6,29.60,SSW,192,6.1,12.0,61,0.00,,,0.00,WUHU216DAVISVP2,2013-01-20 14:59:00,
2013-01-20 10:04:00,42.0,29.6,29.61,SSW,209,3.8,12.0,61,0.00,,,0.00,WUHU216DAVISVP2,2013-01-20 15:04:00,
2013-01-20 10:09:00,42.0,29.6,29.61,SSW,192,6.1,13.0,61,0.00,,,0.00,WUHU216DAVISVP2,2013-01-20 15:09:00,
2013-01-20 10:14:00,41.9,29.9,29.64,North,350,13.0,15.0,62,0.00,,,0.00,WUHU216DAVISVP2,2013-01-20 15:14:00,
2013-01-20 10:19:00,42.5,31.3,29.64,NE,37,5.3,15.0,64,0.00,,,0.00,WUHU216DAVISVP2,2013-01-20 15:19:00,
2013-01-20 10:24:00,42.5,33.1,29.65,NNW,331,7.5,15.0,69,0.00,,,0.00,WUHU216DAVISVP2,2013-01-20 15:24:00,
2013-01-20 10:29:00,42.2,34.2,29.65,West,273,18.0,22.0,73,0.00,,,0.00,WUHU216DAVISVP2,2013-01-20 15:29:00,
2013-01-20 10:34:00,41.7,34.4,29.65,WNW,298,12.0,22.0,75,0.00,,,0.00,WUHU216DAVISVP2,2013-01-20 15:34:00,
2013-01-20 10:39:00,41.4,34.1,29.65,West,281,12.1,23.0,75,0.00,,,0.00,WUHU216DAVISVP2,2013-01-20 15:39:00,
2013-01-20 10:44:00,41.5,33.9,29.65,WNW,291,10.0,23.0,74,0.00,,,0.00,WUHU216DAVISVP2,2013-01-20 15:44:00,
2013-01-20 10:49:00,41.8,33.5,29.65,West,270,9.1,23.0,72,0.00,,,0.00,WUHU216DAVISVP2,2013-01-20 15:49:00,
2013-01-20 10:54:00,42.0,32.9,29.65,West,281,6.3,23.0,70,0.00,,,0.00,WUHU216DAVISVP2,2013-01-20 15:54:00,
2013-01-20 10:59:00,42.2,32.8,29.65,WNW,285,8.1,21.0,69,0.00,,,0.00,WUHU216DAVISVP2,2013-01-20 15:59:00,
2013-01-20 11:04:00,42.2,32.8,29.65,West,280,3.7,19.0,69,0.00,,,0.00,WUHU216DAVISVP2,2013-01-20 16:04:00,
2013-01-20 11:09:00,42.3,32.6,29.66,WNW,296,5.2,14.0,68,0.00,,,0.00,WUHU216DAVISVP2,2013-01-20 16:09:00,
2013-01-20 11:14:00,42.4,32.2,29.66,WNW,292,5.4,14.0,67,0.00,,,0.00,WUHU216DAVISVP2,2013-01-20 16:14:00,
2013-01-20 11:19:00,42.5,32.3,29.67,WNW,289,6.0,14.0,67,0.00,,,0.00,WUHU216DAVISVP2,2013-01-20 16:19:00,
2013-01-20 11:24:00,41.7,33.3,29.67,NNE,17,7.5,14.0,72,0.00,,,0.00,WUHU216DAVISVP2,2013-01-20 16:24:00,
2013-01-20 11:34:00,41.3,33.6,29.66,NNW,330,0.0,12.0,74,0.00,,,0.00,WUHU216DAVISVP2,2013-01-20 16:34:00,
2013-01-20 11:39:00,41.4,33.8,29.66,WNW,296,1.4,10.0,74,0.00,,,0.00,WUHU216DAVISVP2,2013-01-20 16:39:00,
2013-01-20 11:44:00,42.0,32.3,29.66,West,264,3.9,10.0,68,0.00,,,0.00,WUHU216DAVISVP2,2013-01-20 16:44:00,
2013-01-20 11:49:00,42.9,31.6,29.66,WSW,246,6.0,9.0,64,0.00,,,0.00,WUHU216DAVISVP2,2013-01-20 16:49:00,
2013-01-20 11:54:00,43.5,30.1,29.66,WSW,254,7.6,18.0,59,0.00,,,0.00,WUHU216DAVISVP2,2013-01-20 16:54:00,
2013-01-20 11:59:00,44.4,27.4,29.66,West,264,5.3,18.0,51,0.00,,,0.00,WUHU216DAVISVP2,2013-01-20 16:59:00,
2013-01-20 12:04:00,45.1,23.8,29.65,WSW,253,9.4,19.0,43,0.00,,,0.00,WUHU216DAVISVP2,2013-01-20 17:04:00,
2013-01-20 12:09:00,45.5,23.0,29.65,West,276,8.8,22.0,41,0.00,,,0.00,WUHU216DAVISVP2,2013-01-20 17:09:00,
2013-01-20 12:14:00,46.0,22.8,29.65,SW,235,11.0,22.0,40,0.00,,,0.00,WUHU216DAVISVP2,2013-01-20 17:14:00,
2013-01-20 12:19:00,46.0,18.9,29.66,West,270,6.7,22.0,34,0.00,,,0.00,WUHU216DAVISVP2,2013-01-20 17:19:00,
2013-01-20 12:24:00,46.1,16.9,29.66,West,259,8.4,22.0,31,0.00,,,0.00,WUHU216DAVISVP2,2013-01-20 17:24:00,
2013-01-20 12:29:00,46.3,16.5,29.66,WNW,300,13.0,19.0,30,0.00,,,0.00,WUHU216DAVISVP2,2013-01-20 17:29:00,
2013-01-20 12:34:00,46.2,17.2,29.67,West,275,11.0,19.0,31,0.00,,,0.00,WUHU216DAVISVP2,2013-01-20 17:34:00,
2013-01-20 12:39:00,46.1,14.8,29.67,West,265,10.1,21.0,28,0.00,,,0.00,WUHU216DAVISVP2,2013-01-20 17:39:00,
2013-01-20 12:44:00,45.8,15.3,29.67,WSW,249,10.0,21.0,29,0.00,,,0.00,WUHU216DAVISVP2,2013-01-20 17:44:00,
2013-01-20 12:49:00,45.8,15.3,29.67,West,275,8.1,21.0,29,0.00,,,0.00,WUHU216DAVISVP2,2013-01-20 17:49:00,
2013-01-20 12:54:00,45.4,14.9,29.68,West,262,10.0,21.0,29,0.00,,,0.00,WUHU216DAVISVP2,2013-01-20 17:54:00,
2013-01-20 12:59:00,45.1,13.9,29.68,West,277,12.3,23.0,28,0.00,,,0.00,WUHU216DAVISVP2,2013-01-20 17:59:00,
2013-01-20 13:04:00,44.8,13.6,29.68,West,276,14.8,28.0,28,0.00,,,0.00,WUHU216DAVISVP2,2013-01-20 18:04:00,
2013-01-20 13:09:00,44.7,16.6,29.69,WNW,291,6.0,28.0,32,0.00,,,0.00,WUHU216DAVISVP2,2013-01-20 18:09:00,
2013-01-20 13:14:00,44.3,16.3,29.69,WNW,287,10.3,27.0,32,0.00,,,0.00,WUHU216DAVISVP2,2013-01-20 18:14:00,
2013-01-20 13:19:00,43.9,16.6,29.69,WNW,289,7.5,27.0,33,0.00,,,0.00,WUHU216DAVISVP2,2013-01-20 18:19:00,
2013-01-20 13:24:00,43.9,16.6,29.69,NW,307,8.0,23.0,33,0.00,,,0.00,WUHU216DAVISVP2,2013-01-20 18:24:00,
2013-01-20 13:29:00,43.6,14.9,29.70,NW,308,10.7,24.0,31,0.00,,,0.00,WUHU216DAVISVP2,2013-01-20 18:29:00,
2013-01-20 13:34:00,43.3,16.8,29.70,NNW,343,14.0,24.0,34,0.00,,,0.00,WUHU216DAVISVP2,2013-01-20 18:34:00,
2013-01-20 13:39:00,43.0,15.1,29.70,WNW,294,9.8,27.0,32,0.00,,,0.00,WUHU216DAVISVP2,2013-01-20 18:39:00,
2013-01-20 13:44:00,42.7,14.6,29.71,West,277,11.0,27.0,32,0.00,,,0.00,WUHU216DAVISVP2,2013-01-20 18:44:00,
2013-01-20 13:49:00,42.3,15.0,29.71,WNW,289,6.6,26.0,33,0.00,,,0.00,WUHU216DAVISVP2,2013-01-20 18:49:00,
2013-01-20 13:54:00,42.3,15.7,29.72,North,350,6.0,25.0,34,0.00,,,0.00,WUHU216DAVISVP2,2013-01-20 18:54:00,
2013-01-20 13:59:00,42.5,15.8,29.72,West,281,11.9,25.0,34,0.00,,,0.00,WUHU216DAVISVP2,2013-01-20 18:59:00,
2013-01-20 14:04:00,42.6,16.8,29.72,West,275,7.5,21.0,35,0.00,,,0.00,WUHU216DAVISVP2,2013-01-20 19:04:00,
2013-01-20 14:09:00,42.4,19.2,29.74,NNW,345,9.2,20.0,39,0.00,,,0.00,WUHU216DAVISVP2,2013-01-20 19:09:00,
2013-01-20 14:14:00,41.4,20.4,29.74,NW,311,9.0,20.0,43,0.00,,,0.00,WUHU216DAVISVP2,2013-01-20 19:14:00,
2013-01-20 14:19:00,40.7,20.9,29.75,NNE,22,15.0,19.0,45,0.00,,,0.00,WUHU216DAVISVP2,2013-01-20 19:19:00,
2013-01-20 14:24:00,39.4,20.7,29.75,NNW,335,8.6,19.0,47,0.00,,,0.00,WUHU216DAVISVP2,2013-01-20 19:24:00,
2013-01-20 14:29:00,39.1,21.0,29.75,NW,311,11.6,21.0,48,0.00,,,0.00,WUHU216DAVISVP2,2013-01-20 19:29:00,
2013-01-20 14:34:00,38.9,21.3,29.76,NNW,340,14.0,21.0,49,0.00,,,0.00,WUHU216DAVISVP2,2013-01-20 19:34:00,
2013-01-20 14:39:00,38.4,20.3,29.76,NNW,333,10.0,21.0,48,0.00,,,0.00,WUHU216DAVISVP2,2013-01-20 19:39:00,
2013-01-20 14:44:00,37.7,20.2,29.77,NW,310,9.8,21.0,49,0.00,,,0.00,WUHU216DAVISVP2,2013-01-20 19:44:00,
2013-01-20 14:49:00,37.3,20.3,29.77,NW,315,6.5,20.0,50,0.00,,,0.00,WUHU216DAVISVP2,2013-01-20 19:49:00,
2013-01-20 14:54:00,37.1,20.1,29.78,North,352,9.0,20.0,50,0.00,,,0.00,WUHU216DAVISVP2,2013-01-20 19:54:00,
2013-01-20 14:59:00,37.0,20.0,29.78,WNW,290,8.0,20.0,50,0.00,,,0.00,WUHU216DAVISVP2,2013-01-20 19:59:00,
2013-01-20 15:04:00,36.9,20.4,29.79,North,5,11.0,20.0,51,0.00,,,0.00,WUHU216DAVISVP2,2013-01-20 20:04:00,
2013-01-20 15:09:00,36.9,20.4,29.80,NW,311,16.0,18.0,51,0.00,,,0.00,WUHU216DAVISVP2,2013-01-20 20:09:00,
2013-01-20 15:14:00,36.9,20.9,29.81,NNW,342,5.0,19.0,52,0.00,,,0.00,WUHU216DAVISVP2,2013-01-20 20:14:00,
2013-01-20 15:19:00,36.7,20.2,29.82,NW,314,8.8,19.0,51,0.00,,,0.00,WUHU216DAVISVP2,2013-01-20 20:19:00,
2013-01-20 15:24:00,36.5,21.0,29.82,WNW,289,8.0,19.0,53,0.00,,,0.00,WUHU216DAVISVP2,2013-01-20 20:24:00,
2013-01-20 15:29:00,36.0,21.0,29.83,NW,321,16.0,19.0,54,0.00,,,0.00,WUHU216DAVISVP2,2013-01-20 20:29:00,
2013-01-20 15:34:00,35.3,21.2,29.83,NW,305,6.6,19.0,56,0.00,,,0.00,WUHU216DAVISVP2,2013-01-20 20:34:00,
2013-01-20 15:39:00,34.8,21.9,29.84,NNW,330,8.0,20.0,59,0.00,,,0.00,WUHU216DAVISVP2,2013-01-20 20:39:00,
2013-01-20 15:44:00,34.1,22.0,29.84,West,270,11.0,25.0,61,0.00,,,0.00,WUHU216DAVISVP2,2013-01-20 20:44:00,
2013-01-20 15:49:00,33.6,22.4,29.85,NE,37,7.0,25.0,63,0.00,,,0.00,WUHU216DAVISVP2,2013-01-20 20:49:00,
2013-01-20 15:54:00,33.4,21.8,29.86,NW,308,11.1,25.0,62,0.00,,,0.00,WUHU216DAVISVP2,2013-01-20 20:54:00,
2013-01-20 15:59:00,33.2,20.8,29.86,WNW,290,8.9,25.0,60,0.00,,,0.00,WUHU216DAVISVP2,2013-01-20 20:59:00,
2013-01-20 16:04:00,33.0,20.2,29.87,NW,305,8.3,25.0,59,0.00,,,0.00,WUHU216DAVISVP2,2013-01-20 21:04:00,
2013-01-20 16:09:00,32.9,20.6,29.86,West,276,12.0,25.0,60,0.00,,,0.00,WUHU216DAVISVP2,2013-01-20 21:09:00,
2013-01-20 16:14:00,32.9,19.3,29.87,NNW,338,10.0,25.0,57,0.00,,,0.00,WUHU216DAVISVP2,2013-01-20 21:14:00,
2013-01-20 16:19:00,32.9,18.9,29.87,WNW,299,6.0,24.0,56,0.00,,,0.00,WUHU216DAVISVP2,2013-01-20 21:19:00,
2013-01-20 16:24:00,33.0,19.0,29.87,NW,306,8.0,24.0,56,0.00,,,0.00,WUHU216DAVISVP2,2013-01-20 21:24:00,
2013-01-20 16:29:00,33.0,19.0,29.87,West,274,6.0,24.0,56,0.00,,,0.00,WUHU216DAVISVP2,2013-01-20 21:29:00,
2013-01-20 16:34:00,32.8,18.8,29.88,NNW,340,8.0,19.0,56,0.00,,,0.00,WUHU216DAVISVP2,2013-01-20 21:34:00,
2013-01-20 16:39:00,32.4,18.5,29.89,NNW,345,9.0,19.0,56,0.00,,,0.00,WUHU216DAVISVP2,2013-01-20 21:39:00,
2013-01-20 16:44:00,32.1,18.2,29.89,NNW,334,8.2,17.0,56,0.00,,,0.00,WUHU216DAVISVP2,2013-01-20 21:44:00,
2013-01-20 16:49:00,31.8,17.9,29.89,NW,316,9.0,17.0,56,0.00,,,0.00,WUHU216DAVISVP2,2013-01-20 21:49:00,
2013-01-20 16:54:00,31.6,18.1,29.90,West,278,11.0,19.0,57,0.00,,,0.00,WUHU216DAVISVP2,2013-01-20 21:54:00,
2013-01-20 16:59:00,31.3,17.8,29.90,NW,315,13.0,19.0,57,0.00,,,0.00,WUHU216DAVISVP2,2013-01-20 21:59:00,
2013-01-20 17:04:00,31.2,17.3,29.90,NW,308,6.2,19.0,56,0.00,,,0.00,WUHU216DAVISVP2,2013-01-20 22:04:00,
2013-01-20 17:09:00,31.1,17.2,29.90,NW,316,7.4,19.0,56,0.00,,,0.00,WUHU216DAVISVP2,2013-01-20 22:09:00,
2013-01-20 17:14:00,30.9,17.4,29.90,NNW,344,6.0,18.0,57,0.00,,,0.00,WUHU216DAVISVP2,2013-01-20 22:14:00,
2013-01-20 17:19:00,30.7,17.7,29.90,WNW,295,4.0,15.0,58,0.00,,,0.00,WUHU216DAVISVP2,2013-01-20 22:19:00,
2013-01-20 17:24:00,30.6,17.6,29.91,NNE,23,5.0,15.0,58,0.00,,,0.00,WUHU216DAVISVP2,2013-01-20 22:24:00,
2013-01-20 17:29:00,30.4,17.4,29.90,NNW,331,3.4,14.0,58,0.00,,,0.00,WUHU216DAVISVP2,2013-01-20 22:29:00,
2013-01-20 17:34:00,30.2,17.2,29.91,WNW,302,2.9,14.0,58,0.00,,,0.00,WUHU216DAVISVP2,2013-01-20 22:34:00,
2013-01-20 17:39:00,30.1,17.1,29.91,WNW,287,6.0,12.0,58,0.00,,,0.00,WUHU216DAVISVP2,2013-01-20 22:39:00,
2013-01-20 17:44:00,30.2,16.4,29.91,SW,232,4.0,12.0,56,0.00,,,0.00,WUHU216DAVISVP2,2013-01-20 22:44:00,
2013-01-20 17:49:00,30.2,16.4,29.91,North,357,3.8,12.0,56,0.00,,,0.00,WUHU216DAVISVP2,2013-01-20 22:49:00,
2013-01-20 17:54:00,30.1,16.7,29.91,NW,317,2.8,12.0,57,0.00,,,0.00,WUHU216DAVISVP2,2013-01-20 22:54:00,
2013-01-20 17:59:00,30.0,16.2,29.91,NW,304,3.0,12.0,56,0.00,,,0.00,WUHU216DAVISVP2,2013-01-20 22:59:00,
2013-01-20 18:04:00,29.9,16.1,29.91,WNW,295,1.4,7.0,56,0.00,,,0.00,WUHU216DAVISVP2,2013-01-20 23:04:00,
2013-01-20 18:09:00,29.9,16.1,29.92,WNW,289,1.6,7.0,56,0.00,,,0.00,WUHU216DAVISVP2,2013-01-20 23:09:00,
2013-01-20 18:14:00,29.8,16.4,29.92,West,261,3.7,10.0,57,0.00,,,0.00,WUHU216DAVISVP2,2013-01-20 23:14:00,
2013-01-20 18:19:00,29.9,14.4,29.92,WNW,290,12.0,12.0,52,0.00,,,0.00,WUHU216DAVISVP2,2013-01-20 23:19:00,
2013-01-20 18:24:00,30.0,13.5,29.93,WNW,297,6.0,16.0,50,0.00,,,0.00,WUHU216DAVISVP2,2013-01-20 23:24:00,
2013-01-20 18:29:00,30.0,13.5,29.93,WNW,288,9.0,16.0,50,0.00,,,0.00,WUHU216DAVISVP2,2013-01-20 23:29:00,
2013-01-20 18:34:00,29.8,12.4,29.93,WNW,285,9.6,20.0,48,0.00,,,0.00,WUHU216DAVISVP2,2013-01-20 23:34:00,
2013-01-20 18:39:00,29.7,11.8,29.94,SW,235,24.0,24.0,47,0.00,,,0.00,WUHU216DAVISVP2,2013-01-20 23:39:00,
2013-01-20 18:44:00,29.7,11.8,29.94,WNW,286,6.2,24.0,47,0.00,,,0.00,WUHU216DAVISVP2,2013-01-20 23:44:00,
2013-01-20 18:49:00,29.6,11.2,29.94,WNW,293,6.0,24.0,46,0.00,,,0.00,WUHU216DAVISVP2,2013-01-20 23:49:00,
2013-01-20 18:54:00,29.5,11.1,29.95,WNW,289,9.1,24.0,46,0.00,,,0.00,WUHU216DAVISVP2,2013-01-20 23:54:00,
2013-01-20 18:59:00,29.5,11.1,29.95,West,279,6.2,17.0,46,0.00,,,0.00,WUHU216DAVISVP2,2013-01-20 23:59:00,
2013-01-20 19:04:00,29.4,11.0,29.95,WNW,293,6.0,17.0,46,0.00,,,0.00,WUHU216DAVISVP2,2013-01-21 00:04:00,
2013-01-20 19:09:00,29.4,11.0,29.95,West,277,9.4,17.0,46,0.00,,,0.00,WUHU216DAVISVP2,2013-01-21 00:09:00,
2013-01-20 19:14:00,29.5,10.6,29.95,West,272,7.0,17.0,45,0.00,,,0.00,WUHU216DAVISVP2,2013-01-21 00:14:00,
2013-01-20 19:19:00,29.4,11.0,29.95,WSW,257,1.4,16.0,46,0.00,,,0.00,WUHU216DAVISVP2,2013-01-21 00:19:00,
2013-01-20 19:24:00,29.4,11.0,29.96,NW,314,7.0,16.0,46,0.00,,,0.00,WUHU216DAVISVP2,2013-01-21 00:24:00,
2013-01-20 19:29:00,29.3,11.4,29.96,WNW,295,4.0,12.0,47,0.00,,,0.00,WUHU216DAVISVP2,2013-01-21 00:29:00,
2013-01-20 19:34:00,29.3,11.9,29.96,West,263,1.9,9.0,48,0.00,,,0.00,WUHU216DAVISVP2,2013-01-21 00:34:00,
2013-01-20 19:39:00,29.2,10.9,29.96,North,350,11.0,15.0,46,0.00,,,0.00,WUHU216DAVISVP2,2013-01-21 00:39:00,
2013-01-20 19:44:00,29.2,11.9,29.96,West,267,3.6,15.0,48,0.00,,,0.00,WUHU216DAVISVP2,2013-01-21 00:44:00,
2013-01-20 19:49:00,29.2,11.4,29.96,WNW,285,11.0,15.0,47,0.00,,,0.00,WUHU216DAVISVP2,2013-01-21 00:49:00,
2013-01-20 19:54:00,29.2,11.9,29.97,WNW,289,7.0,15.0,48,0.00,,,0.00,WUHU216DAVISVP2,2013-01-21 00:54:00,
2013-01-20 19:59:00,29.2,12.4,29.97,WNW,286,4.1,13.0,49,0.00,,,0.00,WUHU216DAVISVP2,2013-01-21 00:59:00,
2013-01-20 20:04:00,29.0,12.1,29.97,WNW,293,6.0,14.0,49,0.00,,,0.00,WUHU216DAVISVP2,2013-01-21 01:04:00,
2013-01-20 20:09:00,28.9,11.6,29.97,WSW,255,7.1,14.0,48,0.00,,,0.00,WUHU216DAVISVP2,2013-01-21 01:09:00,
2013-01-20 20:14:00,28.9,11.6,29.97,WNW,283,7.4,15.0,48,0.00,,,0.00,WUHU216DAVISVP2,2013-01-21 01:14:00,
2013-01-20 20:19:00,28.8,11.0,29.97,NW,311,10.0,15.0,47,0.00,,,0.00,WUHU216DAVISVP2,2013-01-21 01:19:00,
2013-01-20 20:24:00,28.8,11.0,29.97,NW,316,10.0,18.0,47,0.00,,,0.00,WUHU216DAVISVP2,2013-01-21 01:24:00,
2013-01-20 20:29:00,28.7,11.4,29.97,West,274,4.1,18.0,48,0.00,,,0.00,WUHU216DAVISVP2,2013-01-21 01:29:00,
2013-01-20 20:34:00,28.6,11.3,29.98,WNW,290,9.0,18.0,48,0.00,,,0.00,WUHU216DAVISVP2,2013-01-21 01:34:00,
2013-01-20 20:39:00,28.6,11.8,29.98,WNW,287,6.0,17.0,49,0.00,,,0.00,WUHU216DAVISVP2,2013-01-21 01:39:00,
2013-01-20 20:44:00,28.5,11.7,29.98,West,280,6.0,13.0,49,0.00,,,0.00,WUHU216DAVISVP2,2013-01-21 01:44:00,
2013-01-20 20:49:00,28.4,11.6,29.98,WNW,302,11.0,13.0,49,0.00,,,0.00,WUHU216DAVISVP2,2013-01-21 01:49:00,
2013-01-20 20:54:00,28.3,11.0,29.98,West,275,6.4,14.0,48,0.00,,,0.00,WUHU216DAVISVP2,2013-01-21 01:54:00,
2013-01-20 20:59:00,28.3,11.0,29.99,WNW,291,13.0,19.0,48,0.00,,,0.00,WUHU216DAVISVP2,2013-01-21 01:59:00,
2013-01-20 21:04:00,28.2,10.9,29.98,WNW,282,9.4,20.0,48,0.00,,,0.00,WUHU216DAVISVP2,2013-01-21 02:04:00,
2013-01-20 21:09:00,28.2,11.9,29.98,West,275,5.4,20.0,50,0.00,,,0.00,WUHU216DAVISVP2,2013-01-21 02:09:00,
2013-01-20 21:14:00,28.1,11.8,29.99,WNW,285,5.0,20.0,50,0.00,,,0.00,WUHU216DAVISVP2,2013-01-21 02:14:00,
2013-01-20 21:19:00,28.1,11.8,29.99,WNW,288,5.0,17.0,50,0.00,,,0.00,WUHU216DAVISVP2,2013-01-21 02:19:00,
2013-01-20 21:24:00,28.0,11.2,29.99,West,281,6.7,14.0,49,0.00,,,0.00,WUHU216DAVISVP2,2013-01-21 02:24:00,
2013-01-20 21:29:00,27.9,10.2,29.99,West,273,6.3,13.0,47,0.00,,,0.00,WUHU216DAVISVP2,2013-01-21 02:29:00,
2013-01-20 21:34:00,27.9,10.2,29.99,WNW,295,10.0,17.0,47,0.00,,,0.00,WUHU216DAVISVP2,2013-01-21 02:34:00,
2013-01-20 21:39:00,27.9,10.6,29.99,NNW,347,8.0,20.0,48,0.00,,,0.00,WUHU216DAVISVP2,2013-01-21 02:39:00,
2013-01-20 21:44:00,27.8,10.5,30.00,WNW,297,5.7,20.0,48,0.00,,,0.00,WUHU216DAVISVP2,2013-01-21 02:44:00,
2013-01-20 21:49:00,27.8,11.0,30.00,WNW,285,9.0,20.0,49,0.00,,,0.00,WUHU216DAVISVP2,2013-01-21 02:49:00,
2013-01-20 21:54:00,27.6,12.7,30.00,NNW,343,14.0,20.0,53,0.00,,,0.00,WUHU216DAVISVP2,2013-01-21 02:54:00,
2013-01-20 21:59:00,27.2,15.2,30.00,NNW,330,6.3,18.0,60,0.00,,,0.00,WUHU216DAVISVP2,2013-01-21 02:59:00,
2013-01-20 22:04:00,26.9,16.0,30.00,NNW,337,5.0,15.0,63,0.00,,,0.00,WUHU216DAVISVP2,2013-01-21 03:04:00,
2013-01-20 22:09:00,26.6,17.2,30.01,NE,35,11.0,14.0,67,0.00,,,0.00,WUHU216DAVISVP2,2013-01-21 03:09:00,
2013-01-20 22:14:00,25.9,18.2,30.01,NNE,16,7.9,14.0,72,0.00,,,0.00,WUHU216DAVISVP2,2013-01-21 03:14:00,
2013-01-20 22:19:00,25.5,18.4,30.02,North,1,8.0,14.0,74,0.00,,,0.00,WUHU216DAVISVP2,2013-01-21 03:19:00,
2013-01-20 22:24:00,24.8,17.7,30.02,NNE,23,11.0,15.0,74,0.00,,,0.00,WUHU216DAVISVP2,2013-01-21 03:24:00,
2013-01-20 22:29:00,24.5,17.7,30.02,NNW,340,8.3,15.0,75,0.00,,,0.00,WUHU216DAVISVP2,2013-01-21 03:29:00,
2013-01-20 22:34:00,24.2,17.4,30.03,WNW,293,8.0,17.0,75,0.00,,,0.00,WUHU216DAVISVP2,2013-01-21 03:34:00,
2013-01-20 22:39:00,23.9,17.2,30.03,NW,322,6.5,17.0,75,0.00,,,0.00,WUHU216DAVISVP2,2013-01-21 03:39:00,
2013-01-20 22:44:00,23.6,16.3,30.04,NNW,340,9.0,19.0,73,0.00,,,0.00,WUHU216DAVISVP2,2013-01-21 03:44:00,
2013-01-20 22:49:00,23.4,15.7,30.04,NNW,329,8.5,20.0,72,0.00,,,0.00,WUHU216DAVISVP2,2013-01-21 03:49:00,
2013-01-20 22:55:00,23.2,15.9,30.04,West,270,7.0,20.0,73,0.00,,,0.00,WUHU216DAVISVP2,2013-01-21 03:55:00,
2013-01-20 23:00:00,23.1,16.1,30.04,NW,308,5.0,19.0,74,0.00,,,0.00,WUHU216DAVISVP2,2013-01-21 04:00:00,
2013-01-20 23:05:00,23.1,16.4,30.04,NW,323,4.0,18.0,75,0.00,,,0.00,WUHU216DAVISVP2,2013-01-21 04:05:00,
2013-01-20 23:10:00,22.9,16.8,30.04,NNE,32,11.0,14.0,77,0.00,,,0.00,WUHU216DAVISVP2,2013-01-21 04:10:00,
2013-01-20 23:15:00,22.6,16.8,30.05,North,11,5.3,14.0,78,0.00,,,0.00,WUHU216DAVISVP2,2013-01-21 04:15:00,
2013-01-20 23:20:00,22.3,16.2,30.04,North,5,4.6,11.0,77,0.00,,,0.00,WUHU216DAVISVP2,2013-01-21 04:20:00,
2013-01-20 23:25:00,22.1,16.6,30.05,NNE,15,9.0,10.0,79,0.00,,,0.00,WUHU216DAVISVP2,2013-01-21 04:25:00,
2013-01-20 23:30:00,22.1,16.6,30.05,NNE,31,3.0,10.0,79,0.00,,,0.00,WUHU216DAVISVP2,2013-01-21 04:30:00,
2013-01-20 23:35:00,22.0,16.5,30.05,NNW,330,4.0,10.0,79,0.00,,,0.00,WUHU216DAVISVP2,2013-01-21 04:35:00,
2013-01-20 23:40:00,22.0,16.5,30.05,NNE,14,3.6,9.0,79,0.00,,,0.00,WUHU216DAVISVP2,2013-01-21 04:40:00,
2013-01-20 23:45:00,22.0,16.5,30.04,East,93,1.4,7.0,79,0.00,,,0.00,WUHU216DAVISVP2,2013-01-21 04:45:00,
2013-01-20 23:50:00,22.0,16.5,30.04,North,357,2.0,9.0,79,0.00,,,0.00,WUHU216DAVISVP2,2013-01-21 04:50:00,
2013-01-20 23:55:00,22.0,16.5,30.04,NNW,343,2.0,9.0,79,0.00,,,0.00,WUHU216DAVISVP2,2013-01-21 04:55:00,